Regional Weather Roundup
Issued by NWS

Home | Current Version | Previous Version | Text Only | Print | Product List | Glossary Off
Versions: 1 2 3 4 5 6 7 8 9 10 11 12 13 14 15 16 17 18 19 20 21 22 23 24 25 26 27 28 29 30 31 32 33 34 35 36 37 38 39 40 41 42 43 44 45 46 47 48 49 50

000
ASUS44 KMEG 170710
RWRTN
TENNESSEE HOURLY STATE WEATHER ROUNDUP
NATIONAL WEATHER SERVICE MEMPHIS TN
200 AM CDT TUE OCT 17 2017

TNZ002-004-019-021-049-052-054-088>092-170800-
WEST TENNESSEE

CITY           SKY/WX    TMP DP  RH WIND       PRES   REMARKS
MEMPHIS INTL   CLEAR     51  41  68 NE3       30.30S
NWS MEMPHIS      N/A     48 N/A N/A MISG        N/A
JACKSON        CLEAR     42  41  96 S3        30.31S
COVINGTON      CLEAR     41  41 100 CALM      30.31S
UNION CITY     FOG       37  37 100 CALM      30.32R VSB 1/4
BOLIVAR        FOG       41  39  93 CALM      30.30  VSB 3/4
PARIS          CLEAR     39  39 100 CALM      30.31R
HUNTINGDON     CLEAR     41  41 100 CALM      30.30S
LEXINGTON      CLEAR     43  41  93 N3        30.31R
SELMER         CLEAR     41  41 100 CALM      30.30R
SAVANNAH       CLEAR     41  41 100 CALM      30.29S
$$

TNZ008-025-027-028-033-062-065-066-170800-
NORTH MIDDLE TENNESSEE

CITY           SKY/WX    TMP DP  RH WIND       PRES   REMARKS
NASHVILLE      CLEAR     45  42  89 CALM      30.32S
PORTLAND       CLEAR     41  41 100 CALM      30.31S
CLARKSVILLE    CLEAR     44  40  85 CALM      30.33R
SMYRNA         CLEAR     44  42  93 CALM      30.32S
COOKEVILLE     CLEAR     41  41 100 CALM      30.30S
GALLATIN       CLEAR     43  41  93 CALM      30.34S
CROSSVILLE     CLEAR     43  38  82 CALM      30.31R
$$

TNZ061-075-076-078-094-096-097-170800-
SOUTH MIDDLE TENNESSEE

CITY           SKY/WX    TMP DP  RH WIND       PRES   REMARKS
FAYETTEVILLE   CLEAR     46  43  87 N7        30.27S
TULLAHOMA        N/A     45  39  81 CALM      30.29S
WINCHESTER     CLEAR     45  39  81 NE3         N/A
COLUMBIA       CLEAR     43  41  93 CALM      30.29S
SHELBYVILLE    CLEAR     41  41 100 CALM      30.29F
$$

TNZ017-018-042-046-047-170800-
NORTHEAST TENNESSEE

CITY           SKY/WX    TMP DP  RH WIND       PRES   REMARKS
TRI CITIES     PTCLDY    39  39 100 N3        30.31S
ELIZABETHTON   CLEAR     39  37  93 CALM      30.31S
$$

TNZ012-013-036-069-073-074-170800-
CENTRAL EAST TENNESSEE

CITY           SKY/WX    TMP DP  RH WIND       PRES   REMARKS
KNOXVILLE      CLEAR     47  43  86 N7        30.29R
OAK RIDGE      CLEAR     45  45 100 CALM      30.32R
DOWNTOWN KNOXV CLEAR     46  45  93 CALM      30.31S
GATLINBURG     CLEAR     41  41 100 CALM      30.30S
MORRISTOWN     CLEAR     45  41  87 CALM      30.30S
JACKSBORO      CLEAR     41  39  93 CALM      30.36R
$$

TNZ083-085-099-170800-
SOUTHEAST TENNESSEE

CITY           SKY/WX    TMP DP  RH WIND       PRES   REMARKS
CHATTANOOGA    CLEAR     52  41  66 NE9       30.28S
DAYTON         SUNNY     43  43 100 CALM      30.28F
$$

SKY/WX REPORTED AS FAIR MEANS FEW OR NO CLOUDS BELOW
12 THOUSAND FEET.





USA.gov is the U.S. government's official web portal to all federal, state and local government web resources and services.